• MPC Preparation (Info)

  • MPEC 2019-V66 : 2019 VY1

    The following Minor Planet Electronic Circular may be linked-to from your own Web pages, but must not otherwise be redistributed electronically.

    A form allowing access to any MPEC is at the bottom of this page.


    Read MPEC 2019-V65 Read MPEC 2019-V67


    M.P.E.C. 2019-V66                              Issued 2019 November 5, 13:34 UT
    
         The Minor Planet Electronic Circulars contain information on unusual
             minor planets and routine data on comets.  They are published
        on behalf of Division F of the International Astronomical Union by the
              Minor Planet Center, Smithsonian Astrophysical Observatory,
                              Cambridge, MA 02138, U.S.A.
    
                 Prepared using the Tamkin Foundation Computer Network
    
                                  MPC@CFA.HARVARD.EDU
                URL https://www.minorplanetcenter.net/    ISSN 1523-6714
    
                                    2019 VY1                                 
    
    
    Observations:
         K19V01Y  C2019 11 02.22033122 28 01.835+36 46 00.65         19.78wUEV066F51
         K19V01Y  C2019 11 02.24464622 28 20.314+36 46 12.59         20.19wUEV066F51
         K19V01Y* C2019 11 03.17049 22 40 00.40 +36 50 38.2                VEV066G96
         K19V01Y  C2019 11 03.18087 22 40 07.74 +36 50 39.3                VEV066G96
         K19V01Y  C2019 11 03.18606 22 40 11.43 +36 50 39.9          20.0 GVEV066G96
         K19V01Y  C2019 11 03.20398 22 40 24.06 +36 50 41.2          19.8 GVEV066I52
         K19V01Y  C2019 11 03.20523 22 40 25.00 +36 50 41.5          20.2 GVEV066I52
         K19V01Y  C2019 11 03.20648 22 40 25.88 +36 50 41.6          19.7 GVEV066I52
         K19V01Y  C2019 11 03.20773 22 40 26.75 +36 50 41.8          19.6 GVEV066I52
         K19V01Y  C2019 11 03.23003322 40 42.39 +36 50 40.7          19.5 GVEV066H01
         K19V01Y  C2019 11 03.23348122 40 44.82 +36 50 40.8          20.2 GVEV066H01
         K19V01Y  C2019 11 03.24393022 40 52.23 +36 50 41.1          19.7 GVEV066H01
         K19V01Y  C2019 11 03.25392422 40 59.33 +36 50 41.2          19.6 GVEV066H01
         K19V01Y  C2019 11 04.09356 22 50 52.07 +36 50 56.7          19.6 GVEV066I52
         K19V01Y  C2019 11 04.09398 22 50 52.38 +36 50 56.3          19.8 GVEV066I52
         K19V01Y  C2019 11 04.09403822 50 52.16 +36 50 55.6          19.6 GVEV066H01
         K19V01Y  C2019 11 04.09440 22 50 52.63 +36 50 56.5          19.9 GVEV066I52
         K19V01Y  C2019 11 04.09481 22 50 52.87 +36 50 56.3          20.3 GVEV066I52
         K19V01Y  C2019 11 04.09734822 50 54.34 +36 50 55.5          20.1 GVEV066H01
         K19V01Y  C2019 11 04.10831022 51 01.54 +36 50 54.6          19.5 GVEV066H01
         K19V01Y  C2019 11 04.11496422 51 05.90 +36 50 54.1          19.8 GVEV066H01
         K19V01Y  C2019 11 04.26157 22 52 42.24 +36 50 30.9          20.2 GVEV066654
         K19V01Y  C2019 11 04.27002 22 52 47.75 +36 50 29.3          19.7 GVEV066654
         K19V01Y  C2019 11 04.30672 22 53 11.73 +36 50 19.6          19.9 GVEV066654
         K19V01Y  C2019 11 04.31498 22 53 17.14 +36 50 17.5          19.9 GVEV066654
         K19V01Y  C2019 11 05.10457 23 01 50.86 +36 47 21.5          20.2 GVEV066I52
         K19V01Y  C2019 11 05.10499 23 01 51.11 +36 47 21.7          19.9 GVEV066I52
         K19V01Y  C2019 11 05.10540 23 01 51.36 +36 47 21.4          19.9 GVEV066I52
         K19V01Y  C2019 11 05.10582 23 01 51.61 +36 47 21.4          19.9 GVEV066I52
    
    Observer details:
    654 Table Mountain Observatory, Wrightwood-PHMC.  Observers P. Choi, N. Saini, 
       C. Zhai, R. Trahan, M. Shao.
    F51 Pan-STARRS 1, Haleakala.  Observers J. Bulger, T. Lowe, A. Schultz, M. 
       Willman.  Measurers K. Chambers, S. Chastel, T. de Boer, L. Denneau, J. 
       Fairlamb, H. Flewelling, M. Huber, C.-C. Lin, E. Magnier, Y. Ramanjooloo, R. 
       Wainscoat, R. Weryk.  1.8-m Ritchey-Chretien + CCD.
    G96 Mt. Lemmon Survey.  Observer H. Groeller.  Measurers E. J. Christensen, G. 
       A. Farneth, D. C. Fuls, A. R. Gibbs, A. D. Grauer, H. Groeller, R. A. 
       Kowalski, S. M. Larson, G. J. Leonard, T. A. Pruyne, D. Rankin, R. L. Seaman,
        F. C. Shelly, K. W. Wierzchos.  1.5-m reflector + 10K CCD.
    H01 Magdalena Ridge Observatory, Socorro.  Observers W. H. Ryan, E. V. Ryan.  
        Measurer W. H. Ryan.  2.4-m f/8.9 Ritchey-Chretien + CCD.
    I52 Steward Observatory, Mt. Lemmon Station.  Observers R. A. Kowalski, K. W. 
       Wierzchos, D. Rankin.  Measurers E. J. Christensen, G. A. Farneth, D. C. 
       Fuls, A. R. Gibbs, A. D. Grauer, H. Groeller, R. A. Kowalski, S. M. Larson, 
       G. J. Leonard, T. A. Pruyne, D. Rankin, R. L. Seaman, F. C. Shelly, K. W. 
       Wierzchos.  1.0-m reflector + CCD.
    
    Orbital elements:
    2019 VY1                                                 Earth MOID = 0.0781 AU
    Epoch 2019 Apr. 27.0 TT = JDT 2458600.5                 Veres
    M 309.65545              (2000.0)            P               Q
    n   0.37018572     Peri.  335.05037     +0.77534758     +0.63070169
    a   1.9209804      Node   345.70442     -0.55515358     +0.65619600
    e   0.5868143      Incl.    7.54608     -0.30106584     +0.41427308
    P   2.66           H   21.9           G   0.15           U   5
    Residuals in seconds of arc
    191102 F51  0.0   0.0     191103 H01  0.1-  0.0     191104 H01  0.1-  0.0
    191102 F51  0.1+  0.0     191103 H01  0.1-  0.1+    191104 654  0.0   0.2-
    191103 G96  0.1-  0.2-    191103 H01  0.0   0.0     191104 654  0.1-  0.2+
    191103 G96  0.2-  0.2-    191104 I52  0.2-  0.1+    191104 654  0.0   0.1-
    191103 G96  0.0   0.1-    191104 I52  0.2+  0.3-    191104 654  0.1+  0.1+
    191103 I52  0.5-  0.3-    191104 H01  0.1-  0.1-    191105 I52  0.0   0.2-
    191103 I52  0.1+  0.1-    191104 I52  0.1-  0.1-    191105 I52  0.0   0.1+
    191103 I52  0.1+  0.1-    191104 I52  0.4-  0.3-    191105 I52  0.0   0.1-
    191103 I52  0.1-  0.0     191104 H01  0.1-  0.0     191105 I52  0.0   0.1+
    191103 H01  0.0   0.0     191104 H01  0.0   0.0
    
    Ephemeris:
    2019 VY1                 a,e,i = 1.92, 0.59, 8                   q = 0.7937
    Date    TT    R. A. (2000) Decl.     Delta      r    Elong.  Phase     V
    2019 10 06    15 53 50.4 -09 40 00   0.1940  0.8795    47.1   123.6    23.2
    ...
    2019 10 21    18 48 58.4 +20 28 28   0.1133  0.9861    81.9    91.6    20.4
    ...
    2019 10 29    21 23 19.0 +34 58 04   0.1344  1.0518   112.3    61.0    19.8
    ...
    2019 11 04    22 49 46.8 +36 51 02   0.1745  1.1035   125.9    46.7    20.1
    2019 11 05    23 00 43.8 +36 47 51   0.1824  1.1122   127.5    45.0    20.2
    2019 11 06    23 10 50.4 +36 41 26   0.1906  1.1210   128.9    43.5    20.2
    ...
    2019 11 12    23 57 36.4 +35 27 52   0.2439  1.1742   134.6    36.9    20.7
    ...
    2019 11 20    00 36 52.9 +33 31 09   0.3242  1.2459   137.3    32.6    21.3
    ...
    2019 12 05    01 21 17.9 +30 41 34   0.4976  1.3804   134.4    30.7    22.4
    
    A. U. Tomatic                (C) Copyright 2019 MPC           M.P.E.C. 2019-V66
    


    Read MPEC 2019-V65 Read MPEC 2019-V67


    MPEC number:

    Enter an MPEC number in one of the following forms:

    • 1997-B01 (the full form)
    • J97B01 (the packed version of the full form)
    • B01 (the abbreviated form)